Home   Weather   Mansfield   Past weeks

Flag for USA Past Weather in Mansfield, Texas, USA — Yesterday and Last 2 Weeks

Now
52 °F

Mostly cloudy.


Feels Like: 52 °F
Forecast: 45 / 50 °F
Wind: No wind

Location: Burleson-Rendon

Current Time: Dec 5, 2016 at 12:54:37 pm

Latest Report: Dec 5, 2016 at 11:50 am


Visibility: 7 mi

Pressure: 29.87 "Hg

Humidity: 77%

Dew Point: 45 °F

Location of MansfieldLocation

Past Weather in Mansfield — Graph

°F

Mansfield Temperature Yesterday

Maximum temperature yesterday: 52 °F (at 1:53 pm)
Minimum temperature yesterday: 46 °F (at 6:53 am)
Average temperature yesterday: 48 °F

High & Low Weather Summary for the Past Weeks

 TemperatureHumidityPressure
High73 °F (Nov 21, 2:56 pm)100% (Dec 3, 5:52 pm)30.45 "Hg (Dec 3, 5:52 pm)
Low30 °F (Dec 1, 4:15 am)17% (Nov 28, 2:51 pm)29.48 "Hg (Nov 28, 3:15 am)
Average54 °F69%30.04 "Hg
* Reported Nov 20 11:55 am — Dec 5 11:50 am, Mansfield, Weather by CustomWeather, © 2016

Note: Actual official high and low records may vary slightly from our data, if they occured in-between our weather recording intervals... More about our weather records

Advertising

Mansfield Weather History for the Previous 24 Hours

Scroll right to see more
 ConditionsComfort  
Time TempWeatherWind HumidityBarometerVisibility
11:50 am
Mon, Dec 5
52 °FMostly cloudy.No wind77%29.87 "Hg7 mi
10:55 am48 °FOvercast.No wind87%29.91 "Hg7 mi
9:46 am48 °FOvercast.5 mph82%29.93 "Hg10 mi
8:47 am48 °FOvercast.7 mph87%29.90 "Hg10 mi
7:46 am46 °FOvercast.No wind87%29.95 "Hg10 mi
6:49 am46 °FOvercast.5 mph87%29.93 "Hg10 mi
6:15 am46 °FOvercast.No wind90%29.93 "Hg10 mi
5:55 am46 °FOvercast.6 mph90%29.93 "Hg7 mi
5:15 am46 °FOvercast.No wind90%29.93 "Hg7 mi
4:55 am45 °FOvercast.3 mph92%29.94 "Hg10 mi
4:15 am46 °FOvercast.5 mph90%29.95 "Hg10 mi
3:55 am46 °FOvercast.5 mph90%29.96 "Hg10 mi
3:15 am46 °FMostly cloudy.3 mph89%29.99 "Hg10 mi
2:55 am46 °FOvercast.No wind89%30.03 "Hg10 mi
2:15 am46 °FPassing clouds.6 mph89%30.03 "Hg10 mi
1:55 am47 °FPassing clouds.No wind86%30.04 "Hg10 mi
1:35 am47 °FPassing clouds.No wind86%30.02 "Hg10 mi
1:15 am47 °FPassing clouds.No wind86%30.03 "Hg10 mi
12:55 am47 °FPassing clouds.No wind85%30.04 "Hg10 mi
12:15 am48 °FOvercast.3 mph84%30.07 "Hg10 mi
11:55 pm
Sun, Dec 4
48 °FOvercast.No wind82%30.08 "Hg10 mi
11:15 pm48 °FOvercast.No wind83%30.09 "Hg10 mi
10:55 pm48 °FPassing clouds.No wind82%30.09 "Hg10 mi
10:15 pm49 °FOvercast.5 mph79%30.07 "Hg10 mi
9:55 pm49 °FOvercast.3 mph79%30.07 "Hg10 mi
9:35 pm49 °FOvercast.3 mph78%30.07 "Hg10 mi
9:15 pm49 °FOvercast.6 mph78%30.07 "Hg10 mi
8:55 pm49 °FOvercast.5 mph77%30.05 "Hg10 mi
8:35 pm49 °FOvercast.8 mph77%30.04 "Hg10 mi
8:15 pm49 °FOvercast.12 mph78%30.02 "Hg10 mi
7:55 pm49 °FOvercast.10 mph77%30.04 "Hg10 mi
6:56 pm50 °FOvercast.8 mph76%30.08 "Hg10 mi
5:52 pm50 °FOvercast.10 mph76%30.04 "Hg10 mi
4:48 pm50 °FOvercast.12 mph76%30.04 "Hg10 mi
3:52 pm52 °FOvercast.13 mph72%30.04 "Hg10 mi
2:54 pm52 °FOvercast.10 mph72%30.05 "Hg10 mi
1:53 pm52 °FOvercast.13 mph77%30.07 "Hg10 mi
12:53 pm50 °FOvercast.12 mph82%30.08 "Hg10 mi
Weather by CustomWeather, © 2016

See weather overviewHow to use our weather pages